Location: D�derode
(51.8092°N, 10.1065°E)
Time: 21:11:34
(UTC+00:00)

Cosmos 1238 Rocket - Pass Details

Date: 01 December 2020
Orbit: 375 x 1024 km, 83.0° (Epoch: 25 January)

Event Time Altitude Azimuth Distance (km) Brightness Sun altitude
Rises 17:15:40 0° 354° (N) 2,576 6.2 -18.1°
Reaches altitude 10° 17:17:39 10° 1° (N) 1,771 5.3 -18.4°
Maximum altitude 17:21:26 50° 77° (ENE) 766 3.1 -19.0°
Drops below altitude 10° 17:25:59 10° 153° (SSE) 2,130 5.6 -19.7°
Sets 17:28:35 0° 159° (SSE) 3,162 6.6 -20.1°
